Volver al catálogo

FENGYUN 1C DEB

ActivoSSO
NORAD 30837·DEBRIS·🇨🇳 China

Lanzado May 10, 1999 desde Taiyuan Satellite Launch Center

Loading…

Próximos Pases (próximas 24 horas)

TLE

ActualizadoSource: Space-Track

Época: Sep 14, 2026, 04:27 UTC

1 30837U 99025AVX 26257.18602166  .00000331  00000-0  19243-3 0  9997
2 30837  98.7044 241.1993 0033597  68.2191 351.6886 14.14831239  7053

Sigue FENGYUN 1C DEB en tiempo real con AllMySat

Download on the App Store